NGN110 EDDK-LEPA

Flight info

Callsign NGN110
Flight time N/A
Altitude 35000
Route KUMIK1R KUMIK Y854 BOMBI DCT GIGET DCT ABUKA DCT KRH DCT NATOR DCT LUTIX DCT BENOT DCT NEMOS DCT GEVEA DCT INCUS DCT BALSI DCT RETNO DCT TUPOX DCT MTG DCT DIVKO DCT VATIR N852 VERSO DCT LUNIK
Aircraft A320/M-SDE3FGHIJ1LORVWXY/SB1

Departure

Time 2026-04-24 10:04
Airport Cologne Bonn Airport (EDDK)

Arrival

Time N/A
Airport Palma de Mallorca Airport (LEPA)
Time Latitude Longitude Altitude Speed Heading
2026-04-24 09:14 50.88220 7.12244 232 ft 0 kts 36°
2026-04-24 09:50 50.88204 7.12228 233 ft 4 kts 30°
2026-04-24 09:50 50.88193 7.12217 232 ft 4 kts 39°
2026-04-24 09:51 50.88177 7.12186 232 ft 4 kts 79°
2026-04-24 09:51 50.88180 7.12148 232 ft 4 kts 121°
2026-04-24 09:51 50.88183 7.12139 232 ft 0 kts 126°
2026-04-24 09:55 50.88180 7.12145 232 ft 2 kts 126°
2026-04-24 09:55 50.88168 7.12171 234 ft 4 kts 126°
2026-04-24 09:55 50.88148 7.12216 232 ft 6 kts 126°
2026-04-24 09:56 50.88120 7.12278 235 ft 8 kts 126°
2026-04-24 09:56 50.88084 7.12356 232 ft 10 kts 126°
2026-04-24 09:56 50.88035 7.12445 233 ft 11 kts 136°
2026-04-24 09:56 50.87972 7.12537 234 ft 13 kts 137°
2026-04-24 09:57 50.87903 7.12613 232 ft 12 kts 172°
2026-04-24 09:57 50.87815 7.12638 235 ft 14 kts 149°
2026-04-24 09:57 50.87738 7.12743 232 ft 15 kts 137°
2026-04-24 09:57 50.87655 7.12863 232 ft 17 kts 138°
2026-04-24 09:58 50.87564 7.12993 232 ft 19 kts 136°
2026-04-24 09:58 50.87464 7.13141 232 ft 21 kts 137°
2026-04-24 09:58 50.87354 7.13300 232 ft 22 kts 137°
2026-04-24 09:58 50.87236 7.13472 235 ft 23 kts 137°
2026-04-24 09:59 50.87117 7.13643 239 ft 23 kts 137°
2026-04-24 09:59 50.86999 7.13813 244 ft 23 kts 137°
2026-04-24 09:59 50.86889 7.13973 253 ft 20 kts 137°
2026-04-24 09:59 50.86799 7.14104 255 ft 14 kts 137°
2026-04-24 10:00 50.86711 7.14172 257 ft 15 kts 142°
2026-04-24 10:00 50.86615 7.14312 261 ft 23 kts 136°
2026-04-24 10:00 50.86476 7.14514 268 ft 28 kts 138°
2026-04-24 10:00 50.86335 7.14714 276 ft 27 kts 137°
2026-04-24 10:01 50.86203 7.14907 283 ft 25 kts 137°
2026-04-24 10:01 50.86074 7.15092 292 ft 25 kts 137°
2026-04-24 10:01 50.85947 7.15277 295 ft 25 kts 137°
2026-04-24 10:01 50.85821 7.15459 298 ft 25 kts 137°
2026-04-24 10:02 50.85693 7.15645 301 ft 25 kts 137°
2026-04-24 10:02 50.85567 7.15827 305 ft 25 kts 137°
2026-04-24 10:02 50.85487 7.15970 308 ft 14 kts 98°
2026-04-24 10:02 50.85542 7.16100 308 ft 16 kts 47°
2026-04-24 10:03 50.85620 7.16234 308 ft 18 kts 47°
2026-04-24 10:03 50.85681 7.16324 307 ft 6 kts 15°
2026-04-24 10:03 50.85720 7.16280 309 ft 8 kts 316°
2026-04-24 10:03 50.85817 7.16138 307 ft 45 kts 317°
2026-04-24 10:04 50.86234 7.15535 296 ft 114 kts 317°
2026-04-24 10:04 50.86963 7.14476 327 ft 162 kts 317°
2026-04-24 10:04 50.87789 7.13285 1091 ft 159 kts 317°
2026-04-24 10:04 50.88605 7.12101 1879 ft 163 kts 319°
2026-04-24 10:05 50.89630 7.11206 2257 ft 176 kts 352°
2026-04-24 10:05 50.90854 7.11559 2626 ft 188 kts 25°
2026-04-24 10:05 50.92045 7.12537 3077 ft 198 kts 25°
2026-04-24 10:05 50.93191 7.13731 3712 ft 199 kts 40°
2026-04-24 10:06 50.94028 7.15531 4255 ft 209 kts 59°
2026-04-24 10:06 50.95436 7.20014 4938 ft 250 kts 60°
2026-04-24 10:06 50.96232 7.22531 5563 ft 259 kts 60°
2026-04-24 10:07 50.97047 7.25111 6358 ft 264 kts 60°
2026-04-24 10:07 50.97875 7.27735 7124 ft 268 kts 60°
2026-04-24 10:07 50.98716 7.30407 7866 ft 272 kts 60°
2026-04-24 10:07 50.99568 7.33117 8617 ft 276 kts 60°
2026-04-24 10:08 51.00433 7.35857 9371 ft 279 kts 61°
2026-04-24 10:08 51.01211 7.38671 10099 ft 286 kts 72°
2026-04-24 10:08 51.01447 7.41852 10623 ft 301 kts 92°
2026-04-24 10:08 51.00989 7.45232 10760 ft 327 kts 103°
2026-04-24 10:09 51.00359 7.48801 11089 ft 341 kts 104°
2026-04-24 10:09 50.99690 7.52447 11658 ft 346 kts 104°
2026-04-24 10:09 50.99003 7.56136 12282 ft 350 kts 104°
2026-04-24 10:09 50.98309 7.59863 12901 ft 354 kts 104°
2026-04-24 10:10 50.97611 7.63640 13513 ft 358 kts 104°
2026-04-24 10:10 50.96911 7.67457 14128 ft 362 kts 104°
2026-04-24 10:10 50.96207 7.71308 14668 ft 365 kts 104°
2026-04-24 10:10 50.95496 7.75203 15197 ft 369 kts 104°
2026-04-24 10:11 50.94775 7.79136 15742 ft 372 kts 106°
2026-04-24 10:11 50.93778 7.82948 16287 ft 377 kts 117°
2026-04-24 10:11 50.92389 7.86492 16815 ft 381 kts 123°
2026-04-24 10:11 50.90944 7.89948 17319 ft 385 kts 123°
2026-04-24 10:12 50.89447 7.93521 17863 ft 388 kts 123°
2026-04-24 10:12 50.87950 7.97086 18437 ft 391 kts 123°
2026-04-24 10:12 50.86437 8.00689 18996 ft 393 kts 123°
2026-04-24 10:12 50.84900 8.04284 19465 ft 397 kts 127°
2026-04-24 10:13 50.83046 8.07535 19966 ft 400 kts 138°
2026-04-24 10:13 50.80868 8.10181 20429 ft 403 kts 148°
2026-04-24 10:13 50.78495 8.12548 20989 ft 404 kts 148°
2026-04-24 10:13 50.76118 8.14925 21521 ft 406 kts 149°
2026-04-24 10:14 50.73723 8.17331 21997 ft 409 kts 149°
2026-04-24 10:14 50.71319 8.19755 22469 ft 412 kts 149°
2026-04-24 10:14 50.68891 8.22203 22947 ft 415 kts 149°
2026-04-24 10:14 50.66450 8.24658 23418 ft 417 kts 149°
2026-04-24 10:15 50.63999 8.27116 23874 ft 419 kts 149°
2026-04-24 10:15 50.61530 8.29591 24234 ft 421 kts 149°
2026-04-24 10:15 50.59054 8.32074 24616 ft 423 kts 149°
2026-04-24 10:15 50.56563 8.34568 25017 ft 424 kts 148°
2026-04-24 10:16 50.54076 8.37050 25431 ft 425 kts 149°
2026-04-24 10:16 50.51560 8.39551 25791 ft 428 kts 148°
2026-04-24 10:16 50.49032 8.42064 26118 ft 431 kts 148°
2026-04-24 10:16 50.46523 8.44557 26451 ft 433 kts 148°
2026-04-24 10:17 50.43972 8.47091 26792 ft 435 kts 148°
2026-04-24 10:17 50.41405 8.49633 27110 ft 438 kts 148°
2026-04-24 10:17 50.38823 8.52183 27440 ft 440 kts 148°
2026-04-24 10:17 50.36201 8.54688 27776 ft 442 kts 150°
2026-04-24 10:18 50.33518 8.57052 28104 ft 444 kts 152°
2026-04-24 10:18 50.30780 8.59326 28428 ft 446 kts 153°
2026-04-24 10:18 50.28012 8.61561 28757 ft 448 kts 153°
2026-04-24 10:18 50.25234 8.63797 29067 ft 450 kts 153°
2026-04-24 10:19 50.22451 8.66059 29419 ft 451 kts 153°
2026-04-24 10:19 50.19673 8.68346 29914 ft 450 kts 153°
2026-04-24 10:19 50.16917 8.70638 30375 ft 448 kts 153°
2026-04-24 10:19 50.14205 8.72905 30749 ft 448 kts 153°
2026-04-24 10:20 50.11463 8.75199 31159 ft 446 kts 153°
2026-04-24 10:20 50.08664 8.77250 31568 ft 444 kts 161°
2026-04-24 10:20 50.05706 8.78552 31978 ft 441 kts 171°
2026-04-24 10:20 50.02656 8.78958 32347 ft 439 kts 182°
2026-04-24 10:21 49.99631 8.78467 32731 ft 437 kts 192°
2026-04-24 10:21 49.96652 8.77582 33127 ft 436 kts 191°
2026-04-24 10:21 49.93670 8.76765 33535 ft 435 kts 190°
2026-04-24 10:21 49.90686 8.75999 33933 ft 433 kts 190°
2026-04-24 10:22 49.87709 8.75254 34318 ft 432 kts 190°
2026-04-24 10:22 49.84745 8.74511 34639 ft 431 kts 189°
2026-04-24 10:22 49.81833 8.73774 34959 ft 429 kts 190°
2026-04-24 10:22 49.78888 8.73018 35179 ft 429 kts 190°
2026-04-24 10:23 49.75932 8.72249 35232 ft 433 kts 190°
2026-04-24 10:23 49.69954 8.70676 35233 ft 436 kts 190°
2026-04-24 10:24 49.63998 8.69118 35233 ft 437 kts 190°
2026-04-24 10:24 49.58006 8.67570 35244 ft 437 kts 190°
2026-04-24 10:25 49.52013 8.66029 35249 ft 436 kts 190°
2026-04-24 10:25 49.46032 8.64495 35248 ft 436 kts 190°
2026-04-24 10:26 49.40036 8.62951 35250 ft 437 kts 189°
2026-04-24 10:26 49.34038 8.61410 35252 ft 436 kts 189°
2026-04-24 10:27 49.28045 8.59874 35250 ft 436 kts 189°
2026-04-24 10:27 49.22058 8.58343 35248 ft 436 kts 189°
2026-04-24 10:28 49.16067 8.56812 35239 ft 437 kts 189°
2026-04-24 10:28 49.10103 8.55301 35242 ft 437 kts 189°
2026-04-24 10:29 49.04098 8.53784 35240 ft 437 kts 189°
2026-04-24 10:29 48.98098 8.52266 35239 ft 437 kts 189°
2026-04-24 10:30 48.92090 8.50757 35237 ft 437 kts 189°
2026-04-24 10:30 48.86090 8.49242 35241 ft 436 kts 189°
2026-04-24 10:31 48.80102 8.47736 35237 ft 436 kts 189°
2026-04-24 10:31 48.74108 8.46240 35238 ft 436 kts 188°
2026-04-24 10:32 48.68113 8.44747 35223 ft 436 kts 188°
2026-04-24 10:32 48.62121 8.43253 35228 ft 437 kts 188°
2026-04-24 10:33 48.57129 8.42008 35224 ft 437 kts 188°
2026-04-24 10:33 48.50145 8.40278 35220 ft 437 kts 188°
2026-04-24 10:34 48.45113 8.39031 35218 ft 437 kts 188°
2026-04-24 10:34 48.39143 8.37558 35219 ft 437 kts 188°
2026-04-24 10:35 48.33131 8.36077 35219 ft 437 kts 188°
2026-04-24 10:35 48.27124 8.34600 35220 ft 438 kts 188°
2026-04-24 10:36 48.21117 8.33131 35217 ft 438 kts 189°
2026-04-24 10:36 48.15370 8.30142 35217 ft 439 kts 208°
2026-04-24 10:37 48.10298 8.25022 35220 ft 440 kts 214°
2026-04-24 10:37 48.05291 8.19738 35220 ft 440 kts 214°
2026-04-24 10:38 48.00283 8.14466 35220 ft 440 kts 213°
2026-04-24 10:38 47.95270 8.09213 35220 ft 440 kts 214°
2026-04-24 10:39 47.90288 8.03990 35220 ft 440 kts 213°
2026-04-24 10:39 47.85266 7.98747 35217 ft 441 kts 213°
2026-04-24 10:40 47.80243 7.93502 35217 ft 441 kts 213°
2026-04-24 10:40 47.75228 7.88266 35218 ft 441 kts 213°
2026-04-24 10:41 47.70181 7.83035 35220 ft 441 kts 213°
2026-04-24 10:41 47.65145 7.77850 35222 ft 441 kts 213°
2026-04-24 10:42 47.60099 7.72639 35223 ft 441 kts 213°
2026-04-24 10:42 47.55090 7.67457 35228 ft 442 kts 213°
2026-04-24 10:43 47.50047 7.62270 35225 ft 442 kts 213°
2026-04-24 10:43 47.44987 7.57086 35222 ft 442 kts 213°
2026-04-24 10:44 47.39925 7.51906 35221 ft 442 kts 213°
2026-04-24 10:44 47.34859 7.46738 35228 ft 442 kts 212°
2026-04-24 10:45 47.29805 7.41588 35237 ft 442 kts 212°
2026-04-24 10:45 47.24746 7.36443 35241 ft 441 kts 212°
2026-04-24 10:46 47.19714 7.31350 35238 ft 441 kts 212°
2026-04-24 10:46 47.14654 7.26235 35240 ft 441 kts 212°
2026-04-24 10:47 47.09602 7.21136 35218 ft 441 kts 212°
2026-04-24 10:47 47.04541 7.16058 35227 ft 440 kts 212°
2026-04-24 10:48 46.99432 7.11108 35228 ft 440 kts 211°
2026-04-24 10:48 46.94294 7.06230 35233 ft 440 kts 211°
2026-04-24 10:49 46.89164 7.01351 35239 ft 440 kts 211°
2026-04-24 10:49 46.84040 6.96460 35239 ft 440 kts 211°
2026-04-24 10:50 46.78908 6.91553 35240 ft 440 kts 211°
2026-04-24 10:50 46.73793 6.86676 35248 ft 439 kts 211°
2026-04-24 10:51 46.68710 6.81853 35242 ft 438 kts 211°
2026-04-24 10:51 46.63605 6.77024 35234 ft 436 kts 211°
2026-04-24 10:52 46.58516 6.72220 35228 ft 436 kts 211°
2026-04-24 10:52 46.53422 6.67418 35220 ft 436 kts 211°
2026-04-24 10:53 46.48332 6.62622 35217 ft 436 kts 211°
2026-04-24 10:53 46.43242 6.57847 35215 ft 436 kts 211°
2026-04-24 10:54 46.38147 6.53071 35217 ft 436 kts 211°
2026-04-24 10:54 46.33053 6.48312 35222 ft 436 kts 210°
2026-04-24 10:55 46.27989 6.43599 35223 ft 436 kts 210°
2026-04-24 10:55 46.22885 6.38852 35235 ft 435 kts 210°
2026-04-24 10:56 46.17800 6.34132 35240 ft 434 kts 210°
2026-04-24 10:56 46.12725 6.29433 35237 ft 432 kts 210°
2026-04-24 10:57 46.07652 6.24753 35364 ft 434 kts 210°
2026-04-24 10:57 46.05111 6.22411 35653 ft 433 kts 210°
2026-04-24 10:57 46.02575 6.20075 35947 ft 433 kts 210°
2026-04-24 10:57 46.00040 6.17742 36238 ft 432 kts 210°
2026-04-24 10:58 45.97506 6.15409 36498 ft 432 kts 210°
2026-04-24 10:58 45.95006 6.13106 36736 ft 432 kts 210°
2026-04-24 10:58 45.92471 6.10779 36996 ft 431 kts 210°
2026-04-24 10:58 45.89941 6.08459 37170 ft 432 kts 210°
2026-04-24 10:59 45.87399 6.06166 37194 ft 431 kts 207°
2026-04-24 10:59 45.81869 6.03096 37191 ft 425 kts 192°
2026-04-24 11:00 45.76111 6.01091 37182 ft 426 kts 192°
2026-04-24 11:00 45.70352 5.99073 37179 ft 426 kts 192°
2026-04-24 11:01 45.64582 5.97052 37197 ft 426 kts 192°
2026-04-24 11:01 45.58847 5.95041 37195 ft 427 kts 192°
2026-04-24 11:02 45.53072 5.93020 37194 ft 428 kts 192°
2026-04-24 11:02 45.47288 5.90998 37192 ft 428 kts 192°
2026-04-24 11:03 45.41498 5.88985 37192 ft 428 kts 192°
2026-04-24 11:03 45.35700 5.86979 37178 ft 429 kts 192°
2026-04-24 11:04 45.29935 5.84990 37169 ft 430 kts 192°
2026-04-24 11:04 45.24117 5.82972 37172 ft 430 kts 192°
2026-04-24 11:05 45.18285 5.80960 37171 ft 431 kts 192°
2026-04-24 11:05 45.12448 5.78961 37171 ft 432 kts 192°
2026-04-24 11:06 45.06609 5.76964 37173 ft 432 kts 192°
2026-04-24 11:06 45.00763 5.74962 37170 ft 432 kts 192°
2026-04-24 11:07 44.91976 5.71950 37164 ft 433 kts 192°
2026-04-24 11:07 44.86106 5.69946 37171 ft 433 kts 192°
2026-04-24 11:08 44.80265 5.67969 37162 ft 435 kts 192°
2026-04-24 11:08 44.74376 5.65973 37164 ft 436 kts 192°
2026-04-24 11:09 44.68471 5.63977 37169 ft 436 kts 192°
2026-04-24 11:09 44.62565 5.61980 37172 ft 437 kts 192°
2026-04-24 11:10 44.56651 5.59977 37175 ft 437 kts 192°
2026-04-24 11:10 44.50742 5.57996 37175 ft 436 kts 192°
2026-04-24 11:11 44.44829 5.56020 37173 ft 437 kts 192°
2026-04-24 11:11 44.38950 5.54052 37175 ft 437 kts 192°
2026-04-24 11:12 44.33024 5.52072 37173 ft 438 kts 192°
2026-04-24 11:12 44.27092 5.50090 37181 ft 438 kts 192°
2026-04-24 11:13 44.21149 5.48109 37175 ft 439 kts 192°
2026-04-24 11:13 44.15201 5.46123 37172 ft 439 kts 192°
2026-04-24 11:14 44.09244 5.44147 37176 ft 440 kts 192°
2026-04-24 11:14 44.03282 5.42184 37170 ft 441 kts 192°
2026-04-24 11:15 43.97360 5.39954 37164 ft 442 kts 201°
2026-04-24 11:15 43.91862 5.36090 37162 ft 444 kts 207°
2026-04-24 11:16 43.86439 5.32094 37150 ft 445 kts 207°
2026-04-24 11:16 43.80955 5.28078 37151 ft 446 kts 207°
2026-04-24 11:17 43.75458 5.24058 37155 ft 447 kts 207°
2026-04-24 11:17 43.69937 5.20005 37163 ft 448 kts 207°
2026-04-24 11:18 43.64420 5.15970 37162 ft 449 kts 207°
2026-04-24 11:18 43.58911 5.11962 37161 ft 450 kts 207°
2026-04-24 11:19 43.54303 5.08611 37164 ft 450 kts 207°
2026-04-24 11:19 43.48747 5.04586 37169 ft 451 kts 207°
2026-04-24 11:20 43.43194 5.00576 37170 ft 451 kts 207°
2026-04-24 11:20 43.37637 4.96559 37177 ft 451 kts 207°
2026-04-24 11:21 43.32072 4.92536 37170 ft 452 kts 208°
2026-04-24 11:21 43.26471 4.88510 37156 ft 455 kts 208°
2026-04-24 11:22 43.20838 4.84468 37163 ft 457 kts 208°
2026-04-24 11:22 43.15230 4.80458 37174 ft 458 kts 208°
2026-04-24 11:23 43.09577 4.76424 37181 ft 459 kts 209°
2026-04-24 11:23 43.03905 4.72383 37187 ft 460 kts 209°
2026-04-24 11:24 42.98231 4.68339 37194 ft 461 kts 209°
2026-04-24 11:24 42.92540 4.64283 37206 ft 461 kts 209°
2026-04-24 11:25 42.86844 4.60239 37207 ft 462 kts 209°
2026-04-24 11:25 42.81139 4.56204 37198 ft 461 kts 209°
2026-04-24 11:26 42.75445 4.52183 37212 ft 461 kts 209°
2026-04-24 11:26 42.69745 4.48173 37213 ft 460 kts 209°
2026-04-24 11:27 42.64069 4.44182 37213 ft 459 kts 209°
2026-04-24 11:27 42.58394 4.40202 37211 ft 459 kts 209°
2026-04-24 11:28 42.52752 4.36251 37206 ft 458 kts 209°
2026-04-24 11:28 42.47081 4.32285 37207 ft 458 kts 209°
2026-04-24 11:29 42.41412 4.28325 37208 ft 459 kts 208°
2026-04-24 11:29 42.35730 4.24384 37206 ft 459 kts 208°
2026-04-24 11:30 42.30055 4.20445 37204 ft 459 kts 209°
2026-04-24 11:30 42.24378 4.16504 37209 ft 458 kts 208°
2026-04-24 11:31 42.18702 4.12587 37216 ft 458 kts 208°
2026-04-24 11:31 42.12713 4.09626 37208 ft 459 kts 199°
2026-04-24 11:32 42.06632 4.07032 37207 ft 458 kts 199°
2026-04-24 11:32 42.00551 4.04432 37207 ft 458 kts 199°